Showing default

IRIDIUM 157, 43251

Orbit data source: Space-Track

IRIDIUM 157, 43251 is a payload satellite owned by Iridium (US) in LEO that was launched on Fri, 30 Mar 2018 UTC via an FALCON 9 launch vehicle from the Air Force Western Test Range (AFWTR). Payload-class satellites include a variety of spacecraft equipped with specific instruments for various scientific and technological missions. These include communications satellites like Starlink; space stations such as the ISS; scientific satellites like the Hubble; Earth observation satellites from companies like Planet Labs, Umbra, and HawkEye 360; GPS; miniature CubeSats for education and research; and military/defense satellites.

Loading next visibility...
Identifier
43251, 2018-030C
Orbit
LEO
Country
Flag of USUS
Related business
Manufacturer
OATK SSG Gilbert
Mission
Operational Commercial Communications
Bus & Motor
ELITEBUS, Unknown motor
Mass
860 kg wet, 700 kg dry
Launch date (UTC)
2018-03-30 (8 years ago)
Launch vehicle
FALCON 9
Launch site
Air Force Western Test Range (AFWTR)
Object type
Payload
Rocket body
Debris
Shape & HBR
Trap Box + 2 Pan, 4.8 m
Radar Cross Section
10.154 m², Large (>1 m²)

Expand to show TLE details & history
Last TLE update: 12 hours ago

TLE from 12 hours ago
0 IRIDIUM 157
1 43251U 18030C   25307.69434667 -.00000079  00000-0 -35238-4 0  9992
2 43251  86.4003  24.6799 0002215  99.6857 260.4589 14.34216899397818
Epoch: 2025-11-03T16:39Z
TLE epoch observation values (Epoch: 2025-11-03T16:39:51.552Z)
Latitude
-0.00002°
Longitude
91.52305°
Altitude
780.984 km
Speed
7.463 km/s
True Right ascension
01h 38m 43s
True Declination
0° 00' 00"
Sunlit
Object was in full shadow at epoch
Visualization orbit readout
Latitude
Unknown
Longitude
Unknown
Altitude
Unknown
Speed
Unknown
Apparent Right ascension
Unknown
Apparent Declination
Unknown
Sunlit
N/A
Visualization observer readout
Local Sidereal Time
00:28:43
Azimuth
Unknown
Elevation
Unknown
Doppler factor
Unknown
Orbital elements
Apogee altitude
776.219 km
Perigee altitude
773.05 km
Semi-major axis
7,152.771 km
Eccentricity
0.00022
Inclination
86.4003°
RAAN
24.6799°
Arg. of periapsis
99.6857°
True anomaly
260.43387°
Mean anomaly
260.4589°
Eccentric anomaly
260.44639°
Mean motion
3.58783 °/min
Orbital period
100.34 mins
BSTAR
-0.000035238
Loading maneuver chart data...
Computing Atmospheric mass density...
Loading historical data...
Loading historical data...
Loading historical data...
Loading historical data...
Loading historical data...
Loading historical data...
Loading historical data...

Documentation

Showing up to 5 results
|